RH
58 56 59 57 61 65 79 84 87 90 93 89 91 89 83 78 78 71 70 79 80 72 64 68 73 71 76 82 81 78 72 69 69 68 76 80 79 80 80 79 78 77 78
57 55 55 57 56 70 78 88 90 87 89 86 86 88 85 81 75 66 64 69 87 83 71 65 71 73 72 80 82 80 77 74 71 69 75 78 79 80 79 79 79 78 78
52 48 45 45 48 60 73 78 81 87 89 87 85 81 81 77 72 77 66 66 69 87 82 74 70 78 78 77 82 80 78 76 76 74 71 78 79 79 79 79 80 78 78
42 43 40 42 45 44 48 55 65 75 78 81 88 88 75 70 63 63 71 76 67 56 74 78 75 72 82 79 79 77 74 78 76 76 76 78 78 78 79 80 79 78 78
34 32 34 37 39 33 36 35 36 47 50 54 64 62 65 76 69 65 70 74 73 71 57 67 80 78 77 83 79 82 73 73 77 76 76 76 77 78 79 80 79 79 78
29 29 29 35 34 31 33 37 39 33 36 40 41 40 52 77 82 72 73 63 66 70 71 65 50 68 82 82 82 80 81 72 72 73 76 77 76 77 78 78 80 80 79
28 31 26 28 32 31 35 40 39 41 35 34 42 43 36 46 64 70 74 78 69 65 69 70 72 56 49 81 80 81 80 78 72 75 78 77 78 77 78 79 80 80 80
30 28 30 30 31 32 38 38 41 39 38 36 37 39 43 39 40 59 64 76 70 64 67 69 73 74 64 52 72 80 81 84 79 75 77 78 79 78 78 80 81 82 82
32 32 33 33 35 36 35 38 38 40 38 40 43 36 40 44 47 33 45 56 73 81 77 72 75 70 70 66 63 76 84 84 82 76 75 78 80 80 79 79 80 80 81
31 32 32 33 36 36 40 42 33 43 46 42 40 32 44 39 42 47 35 36 55 60 90 89 75 70 72 72 70 68 86 87 86 78 74 74 80 82 81 79 80 80 81
31 30 32 35 38 36 40 47 50 51 43 46 43 42 45 40 43 43 44 37 35 47 86 90 92 84 72 67 73 73 87 93 86 81 76 74 79 80 82 80 80 81 81
36 33 28 35 38 39 39 43 49 50 50 49 46 46 44 45 41 41 42 42 38 36 37 63 85 94 93 83 76 78 87 91 91 84 80 77 78 79 81 80 80 81 80
31 34 36 43 36 35 35 37 44 48 46 46 49 44 40 39 37 37 39 40 39 34 34 36 57 68 86 93 88 89 88 94 91 88 86 82 79 79 81 81 80 79 78
31 32 34 34 34 34 35 39 40 42 45 46 49 46 39 38 36 35 35 38 42 39 36 42 35 67 83 93 92 95 89 96 96 92 89 88 86 83 83 83 80 77 75
27 30 34 36 36 36 36 39 42 45 46 50 53 53 48 43 44 43 43 38 40 46 40 35 34 36 63 80 90 95 96 94 99 97 97 95 91 87 87 86 82 78 74
34 34 34 34 34 35 37 40 43 43 48 49 44 49 48 44 43 43 43 46 42 43 48 36 32 34 48 73 83 98 97 98 100 99 97 96 96 92 91 92 92 82 78
34 34 33 34 35 36 37 40 42 43 46 47 48 49 50 48 45 44 47 50 51 46 48 42 35 35 42 65 75 83 92 97 98 100 99 96 95 96 96 96 95 95 88
37 36 35 34 34 34 35 36 40 37 41 43 45 47 46 34 47 47 45 53 52 48 45 49 41 38 42 43 48 65 78 92 97 99 100 98 95 95 98 98 99 96 92
35 34 34 36 36 36 35 37 36 40 42 44 46 48 48 49 52 48 47 48 50 41 45 47 44 39 39 39 49 59 74 82 89 87 99 99 98 95 96 99 99 97 97
37 36 36 35 37 35 34 36 36 41 45 46 54 56 55 56 57 57 56 58 48 53 52 50 46 45 43 40 44 65 97 92 97 96 99 100 100 98 96 98 99 96 95
36 34 35 36 37 35 30 38 40 47 52 57 60 58 63 66 68 68 61 66 69 65 57 55 55 54 51 48 51 64 82 88 97 96 98 99 99 98 98 98 94 95 93
33 34 36 38 39 30 51 67 64 58 62 67 76 68 62 66 66 74 76 75 70 74 83 84 69 64 58 52 47 54 75 97 96 97 99 98 99 99 99 96 94 93 90
36 38 38 39 42 45 59 67 70 65 75 78 77 77 69 54 68 64 70 77 79 78 77 67 81 80 64 53 50 56 77 87 84 96 92 98 99 99 98 98 96 93 91
38 38 42 44 49 47 67 72 76 78 84 82 79 76 77 79 75 73 75 78 71 71 71 62 64 63 66 59 67 64 70 84 97 95 89 96 98 97 99 99 98 96 96
40 41 46 55 62 68 72 76 80 94 92 87 75 76 76 81 82 77 90 95 90 87 70 75 82 75 65 65 70 76 96 95 100 98 95 87 95 97 95 99 100 97 96
41 54 62 66 70 81 78 80 84 96 99 91 86 80 80 80 87 92 97 94 93 84 72 71 82 92 93 68 70 73 96 92 90 97 92 86 93 89 94 97 98 99 100
Wind_Speed
3 2 2 1 3 2 3 5 6 7 9 9 6 10 12 10 10 7 5 11 14 16 15 15 17 20 22 20 21 20 20 20 19 20 19 17 16 16 16 16 16 15 15
2 3 1 2 3 5 6 4 5 6 7 7 12 11 12 12 12 12 8 8 11 11 14 17 18 23 24 25 21 22 21 20 21 21 20 19 17 17 17 16 16 15 16
4 3 3 3 4 3 5 5 6 5 6 7 11 10 9 11 10 9 12 9 10 17 18 18 21 23 22 24 23 23 23 22 22 21 21 20 19 18 17 17 17 16 16
3 2 2 3 4 3 2 3 4 4 4 6 5 7 9 9 13 11 11 9 10 10 16 21 20 21 23 21 25 27 26 25 23 23 22 21 21 20 19 18 18 18 17
2 2 2 3 4 3 3 5 5 4 6 6 6 8 8 9 13 9 13 13 13 10 11 15 21 20 21 20 23 28 29 27 26 26 24 23 23 23 21 20 20 19 19
2 2 1 2 4 3 4 4 6 6 6 6 8 10 8 8 9 13 11 11 11 13 13 14 12 10 18 21 22 25 29 30 30 29 27 26 26 24 24 23 22 22 20
5 3 4 3 3 5 3 5 6 8 7 5 7 8 9 10 12 12 12 11 13 14 14 13 10 9 9 23 26 25 29 31 30 29 28 28 27 26 25 25 25 24 23
6 5 4 5 6 6 7 7 6 8 7 7 7 8 8 8 7 5 7 9 13 11 12 14 13 14 10 8 17 26 28 31 30 30 29 29 28 27 27 26 27 26 25
9 8 7 6 6 7 8 8 9 10 9 8 11 8 8 7 11 8 8 7 10 8 11 9 11 15 13 12 11 20 27 29 30 30 29 29 29 29 27 27 27 27 26
7 9 9 8 8 7 9 9 10 10 10 11 9 9 11 11 11 10 9 11 8 8 5 8 9 12 14 11 15 14 22 26 27 28 29 30 29 29 29 28 27 27 26
7 7 8 9 8 8 10 11 11 11 11 11 10 10 11 10 11 12 13 10 11 8 4 3 7 10 13 14 12 15 14 22 27 28 28 31 31 30 29 29 29 29 28
4 5 6 7 8 9 11 11 12 14 12 12 11 12 11 11 11 12 13 12 13 10 9 4 5 7 8 10 13 16 9 21 27 28 27 30 32 32 32 31 30 30 29
5 6 7 7 8 11 13 12 12 13 13 13 14 12 11 12 11 12 12 12 13 11 10 10 6 8 8 8 10 16 20 13 21 28 26 28 31 32 33 33 33 32 31
5 7 8 10 11 13 13 13 11 12 14 13 16 14 13 13 13 13 13 12 12 12 12 14 10 7 8 8 11 15 16 13 14 23 27 26 29 30 30 33 33 33 32
6 9 9 11 13 13 14 14 11 14 14 14 14 15 14 13 13 13 13 12 12 13 13 12 11 11 9 8 9 8 10 18 15 16 18 21 26 29 29 30 32 33 33
9 10 12 13 14 15 15 15 13 15 15 13 12 16 16 14 15 13 13 13 13 13 15 12 12 13 7 6 7 6 8 10 13 13 14 18 20 28 29 30 31 31 32
10 12 14 15 15 16 16 15 17 18 18 17 16 17 19 19 14 14 14 13 13 13 15 12 11 12 17 10 8 6 7 7 4 11 14 16 18 19 27 28 27 29 27
12 14 15 16 17 17 17 18 19 18 19 18 18 18 19 14 19 18 15 18 16 16 14 18 13 12 15 14 10 9 8 6 5 4 12 16 15 17 20 25 26 26 29
14 15 16 17 17 18 18 18 19 19 19 19 19 19 19 19 19 17 18 16 15 15 15 14 14 11 12 12 11 9 8 9 6 14 6 12 17 15 18 21 25 27 26
14 15 16 17 17 18 18 19 19 19 18 17 16 16 18 19 20 19 17 18 16 15 16 15 14 13 13 13 12 9 4 6 5 1 4 5 8 15 19 23 27 30 31
14 16 17 17 17 16 14 17 17 19 18 17 16 17 17 20 27 23 14 15 16 15 13 14 14 13 13 13 13 8 7 4 3 2 1 1 1 7 11 22 24 31 33
15 16 17 17 18 14 16 14 15 16 16 17 16 17 18 24 24 27 27 26 22 17 15 12 13 14 16 13 13 11 8 4 6 4 2 1 1 4 6 13 22 26 34
15 17 17 17 17 18 18 18 20 15 15 16 17 17 16 14 19 18 22 25 26 27 23 18 17 15 15 14 14 15 11 8 8 3 2 2 4 6 5 9 22 28 27
15 15 16 17 17 15 20 22 22 16 15 17 18 19 19 19 18 18 16 17 17 18 20 16 19 19 17 15 9 11 11 8 6 3 2 3 1 5 6 5 6 16 32
15 14 15 17 18 17 24 25 22 15 15 17 17 18 18 18 22 26 18 18 17 15 15 22 22 23 25 29 17 9 3 8 3 2 0 3 3 4 4 5 6 8 11
14 12 15 16 17 16 23 26 23 12 14 12 15 17 24 22 25 24 18 17 17 16 16 15 15 17 22 21 20 10 7 10 5 3 4 4 5 4 4 2 7 5 4
Wind_Direction
73 137 112 98 333 339 252 206 215 208 227 253 242 259 271 257 244 251 242 227 227 208 202 222 242 245 225 202 191 191 206 211 209 209 201 198 199 198 192 190 183 182 183
33 68 41 24 23 1 336 295 240 241 242 239 248 226 240 247 237 249 245 241 244 257 224 221 224 240 241 219 199 192 197 207 211 211 203 201 203 199 193 192 186 181 180
63 14 25 1 25 21 3 9 5 328 292 271 270 272 247 244 256 234 252 248 235 219 229 224 222 229 239 240 209 199 196 201 204 211 212 200 205 204 198 191 182 181 181
74 72 30 9 3 340 355 342 343 334 304 294 305 308 280 261 256 239 234 237 250 241 212 226 225 219 228 229 235 206 205 198 203 205 212 203 204 204 200 189 185 185 186
101 10 17 23 328 346 356 337 333 323 321 304 308 288 282 277 266 259 240 221 235 247 251 206 222 222 222 216 230 223 211 207 202 201 206 206 204 203 198 191 188 187 191
141 305 159 320 306 322 339 357 327 321 307 305 306 296 269 272 250 250 251 242 226 227 234 241 225 222 222 219 220 227 223 209 210 204 205 204 202 204 200 193 190 189 194
193 243 306 298 292 304 318 294 308 308 305 308 307 301 293 263 259 244 237 241 231 232 234 232 231 241 221 217 216 220 225 221 210 210 204 206 202 201 203 195 192 193 195
250 258 250 292 309 308 302 300 310 303 299 295 300 307 299 310 269 329 290 259 254 245 225 231 237 233 232 244 209 213 219 229 216 207 205 204 203 201 202 202 196 197 199
251 253 268 284 296 295 295 301 299 300 297 310 298 294 303 301 327 311 281 303 320 287 261 219 231 241 234 244 260 211 209 214 224 213 205 204 203 200 202 205 204 199 202
235 259 263 272 277 285 286 283 281 307 304 293 292 294 295 292 286 293 295 306 277 287 312 265 235 233 240 239 252 247 203 205 213 219 207 206 200 201 199 204 205 201 199
269 268 282 288 289 291 294 300 295 288 289 288 286 288 290 291 289 279 282 279 288 262 230 238 310 246 228 236 240 262 201 206 208 210 209 206 200 198 200 203 204 204 201
309 285 299 306 304 299 289 288 293 292 288 285 286 287 287 285 283 286 286 285 283 281 287 240 263 267 260 224 243 251 270 206 207 212 206 205 202 199 197 201 203 204 202
289 311 321 319 305 302 298 291 285 282 280 277 277 276 276 277 280 277 278 278 282 284 275 269 238 257 254 256 241 243 259 224 220 208 211 204 202 201 198 199 199 202 201
277 292 291 289 290 291 290 286 281 276 275 272 270 266 269 268 267 267 267 272 267 269 267 264 254 221 241 247 240 236 247 247 234 229 208 208 200 200 200 198 197 200 198
279 279 296 287 283 282 281 280 277 276 276 276 273 270 270 269 269 271 274 264 269 270 266 271 273 241 215 232 238 228 247 254 226 227 224 210 203 197 196 198 196 196 199
281 293 296 290 288 285 282 280 277 275 273 271 269 267 267 267 266 262 257 265 259 263 273 271 272 280 254 232 249 262 249 266 249 231 222 213 216 199 196 196 200 195 196
291 292 290 288 284 281 278 277 275 272 268 268 269 270 269 270 266 267 261 256 254 262 261 266 265 268 276 220 210 255 269 256 258 235 222 221 210 207 197 192 194 190 198
289 284 283 281 280 278 277 274 272 272 274 274 271 269 267 265 264 264 261 254 250 251 258 260 257 262 263 264 251 229 241 241 251 305 248 224 214 208 199 191 189 185 180
285 284 284 282 281 279 279 278 277 275 273 271 271 270 270 270 267 265 264 261 253 250 254 260 263 258 265 271 255 235 240 247 233 241 245 237 236 215 204 192 186 178 167
288 287 286 284 283 282 280 279 278 276 274 273 275 277 276 272 273 276 276 279 267 256 253 254 255 252 251 251 253 227 202 243 255 318 261 294 279 230 212 189 183 175 164
291 290 288 286 286 284 281 285 290 290 287 287 283 279 273 267 264 263 271 269 280 278 265 254 252 251 250 252 247 226 230 227 234 224 235 267 46 271 213 193 190 174 165
294 294 293 291 291 289 297 296 290 285 285 280 273 266 265 264 259 255 256 257 257 265 267 286 270 252 249 250 249 241 213 182 244 209 161 9 73 40 308 198 173 177 164
300 296 297 300 299 297 297 303 296 287 280 271 267 266 264 262 259 254 251 243 244 247 249 258 263 277 268 258 255 251 193 193 221 158 136 90 338 113 18 333 171 158 159
302 303 304 305 303 303 308 301 295 286 275 267 264 263 260 260 256 257 258 254 245 239 237 235 243 249 264 276 302 328 277 165 79 125 151 123 36 42 93 17 34 180 151
305 308 310 312 308 304 298 292 291 283 273 267 264 262 260 259 256 255 250 246 253 257 248 238 250 259 239 253 265 304 291 167 116 170 232 107 137 92 21 91 71 37 137
311 317 311 300 298 290 287 288 288 278 275 269 259 255 253 250 253 249 245 246 249 240 239 241 235 235 248 248 243 241 266 217 145 149 173 110 135 131 97 345 109 104 95